Orbital Elements at Epoch 2459200.5 (2020-Dec-17.0) TDB
Reference: JPL 33 (heliocentric ecliptic J2000)
Element | Value | Uncertainty (1-sigma) | Units |
e | .2572762872971028 | 3.642e-08 | |
a | 3.090135809355337 | 1.6698e-08 | au |
q | 2.295117141080568 | 1.089e-07 | au |
i | 17.56636110217898 | 3.916e-06 | deg |
node | 142.8812823818658 | 1.3108e-05 | deg |
peri | 231.5254047897863 | 1.5577e-05 | deg |
M | 20.30890485354372 | 6.5e-06 | deg |
tp | 2459088.569413029026 (2020-Aug-27.06941303) | 3.604e-05 | TDB |
period | 1984.10557339922 5.43 | 1.6082e-05 4.403e-08 | d yr |
n | .1814419579414007 | 1.4707e-09 | deg/d |
Q | 3.885154477630106 | 2.0994e-08 | au |
|
| | Orbit Determination Parameters
Additional Information
|